Terminal Aerodrome Forecast
Issued by NWS

Home | Current Version | Previous Version | Text Only | Print | Product List | Glossary On
Versions: 1 2 3 4 5 6 7 8 9 10 11 12 13 14 15 16 17 18 19 20 21 22 23 24 25
000
FTUS41 KGYX 011121
TAFRKD
TAF
KRKD 011121Z 0112/0212 30003KT P6SM SKC
     FM011500 22008KT P6SM SCT050 SCT080
     FM011800 21010G16KT P6SM VCTS SCT050CB BKN080
     FM012300 30003KT P6SM SCT060
      AMD LTD TO CLD VIS AND WIND=

USA.gov is the U.S. government's official web portal to all federal, state and local government web resources and services.